Regional Weather Roundup
Issued by NWS Green Bay, WI

Home | Current Version | Previous Version | Text Only | Print | Product List | Glossary On
Versions: 1 2 3 4 5 6 7 8 9 10 11 12 13 14 15 16 17 18 19 20 21 22 23 24 25 26 27 28 29 30 31 32 33 34 35 36 37 38 39 40 41 42 43 44 45 46 47 48 49 50
000
ASUS43 KGRB 291110
RWRGRB

NORTH-CENTRAL AND NORTHEAST WISCONSIN REGIONAL WEATHER ROUNDUP
NATIONAL WEATHER SERVICE GREEN BAY WI
500 AM CST THU JAN 29 2015

WIZ005-009-010>012-018-019-291200-
NORTH CENTRAL WISCONSIN

CITY           SKY/WX    TMP DP  RH WIND       PRES   REMARKS
IRONWOOD       CLOUDY    28  27  93 NW14G21   29.79R
MANITOWISH WTR CLOUDY    26  26  99 N10G17    29.77R FOG
ARBOR VITAE    CLOUDY    27  25  94 NW8       29.77R FOG
EAGLE RIVER    CLOUDY    25  24  93 CALM      29.75R FOG
LAND O LAKES   CLOUDY    26  26  99 NW8       29.75R FOG
RHINELANDER    CLOUDY    25  23  92 NW5       29.76S FOG
PHILLIPS       CLOUDY    26  25  98 NW6       29.80R FOG
ANTIGO         CLOUDY    24  24  99 NW7       29.76R FOG
TOMAHAWK       CLOUDY    26  24  95 CALM      29.79R FOG
MERRILL        CLOUDY    26  26  99 NW6       29.78S FOG
$$

WIZ013-073-291200-
NORTHEAST WISCONSIN

CITY           SKY/WX    TMP DP  RH WIND       PRES   REMARKS
IRON MOUNTAIN  CLOUDY    27  25  92 NW5       29.74S FOG
MARINETTE      CLOUDY    30  25  80 NW3       29.76S
OCONTO         CLOUDY    30  26  83 MISG      29.76F
$$

WIZ017-030-035>037-045-291200-
CENTRAL WISCONSIN

CITY           SKY/WX    TMP DP  RH WIND       PRES   REMARKS
MEDFORD        CLOUDY    26  25  96 NW12      29.80R FOG
WAUSAU         CLOUDY    26  25  96 NW8       29.77R FOG
MOSINEE        NOT AVBL
MARSHFIELD     CLOUDY    28  25  88 NW16      29.81R FOG
WISC RAPIDS    CLOUDY    27  24  89 NW10      29.81R FOG
STEVENS POINT  CLOUDY    25  24  98 NW8       29.79R FOG
WAUPACA        CLOUDY    31  27  84 NW9       29.78R HAZE
SHAWANO        CLOUDY    31  26  82 NW3       29.77F
CLINTONVILLE   CLOUDY    30  25  80 NW8       29.77F
$$

WIZ038-039-048-051-291200-
FOX VALLEY

CITY           SKY/WX    TMP DP  RH WIND       PRES   REMARKS
NWS GREEN BAY  CLOUDY    30  25  81 NW8       29.76F HAZE
APPLETON       NOT AVBL
OSHKOSH        CLOUDY    30  24  78 N7        29.75S HAZE
FOND DU LAC    CLOUDY    30  25  81 N5        29.75R HAZE
$$

WIZ022-050-052-291200-
EAST CENTRAL WISCONSIN

CITY           SKY/WX    TMP DP  RH WIND       PRES   REMARKS
STURGEON BAY   CLOUDY    30  25  80 W5        29.77F
MANITOWOC      MIX PCPN  31  30  96 N5        29.75F FOG
SHEBOYGAN      CLOUDY    31  26  82 NW5       29.74F
$$

LMZ563-521-522-541>543-291200-
LAKESHORE

STATION/POSITION TIME  TEMP    WIND        PRES    VSBY  WAVE
                       AIR SEA DIR/SP/G                  HT/PER
                 (UTC) (F)     (DEG/KT/KT) (MB)    (MI)  (FT/S)
SHEBOYGAN LKSHOR 1100   34     280/  4/  4 1007.9F
KEWAUNEE LKSHORE 1100   30      CALM  /  1 1006.9F
NORTHPORT PIER   1100   31     290/  4/  7 1008.1S
SISTER BAY LKSHO 1100   30     310/  8/  9   N/A
CHAMBERS ISLAND  1100   30      CALM  /  4 1008.1S
MENOMINEE LKSHOR 1100   31     300/  5     1008.6S
$$


USA.gov is the U.S. government's official web portal to all federal, state and local government web resources and services.